This is the latest recevied weather packets stored in our database for station/object KC4GS-13. If no packets are shown the sender has not sent any weather packets the latest 10 day(s).
| Time | Temp. | Humidity | Pressure | Rain* | Wind** | Luminosity | Snow |
|---|---|---|---|---|---|---|---|
| 1788020180 | 29.44° C | 69% | 1022.9 hPa | 0 mm | - | 187 W/m² | - |
| 1788019875 | 29.44° C | 72% | 1022.4 hPa | 0 mm | - | 215 W/m² | - |
| 1788019575 | 29.44° C | 74% | 1022.5 hPa | 0 mm | - | 264 W/m² | - |
| 1788019270 | 28.89° C | 73% | 1022.7 hPa | 0 mm | - | 208 W/m² | - |
| 1788018967 | 29.44° C | 72% | 1022.6 hPa | 0 mm | - | 243 W/m² | - |
| 1788018663 | 29.44° C | 73% | 1022.7 hPa | 0 mm | - | 321 W/m² | - |
| 1788018361 | 28.89° C | 73% | 1022.5 hPa | 0 mm | - | 296 W/m² | - |
| 1788018057 | 28.89° C | 75% | 1022.6 hPa | 0 mm | - | 416 W/m² | - |
| 1788017753 | 28.89° C | 73% | 1022.7 hPa | 0 mm | - | 206 W/m² | - |
| 1788017449 | 28.89° C | 73% | 1022.8 hPa | 0 mm | - | 257 W/m² | - |
| 1788017146 | 28.33° C | 75% | 1022.9 hPa | 0 mm | - | 429 W/m² | - |
| 1788016845 | 28.89° C | 75% | 1022.8 hPa | 0 mm | - | 412 W/m² | - |
| 1788016544 | 28.33° C | 76% | 1022.8 hPa | 0 mm | - | 356 W/m² | - |
| 1788016239 | 27.78° C | 78% | 1022.7 hPa | 0 mm | - | 713 W/m² | - |
| 1788015937 | 27.78° C | 80% | 1022.8 hPa | 0 mm | - | 256 W/m² | - |
| 1788015633 | 27.22° C | 81% | 1022.6 hPa | 0 mm | - | 606 W/m² | - |
| 1788015327 | 26.67° C | 81% | 1022.6 hPa | 0 mm | - | 246 W/m² | - |
| 1788015026 | 26.67° C | 83% | 1022.8 hPa | 0 mm | - | 170 W/m² | - |
| 1788014720 | 26.67° C | 83% | 1022.5 hPa | 0 mm | - | 176 W/m² | - |
| 1788014415 | 26.67° C | 85% | 1022.6 hPa | 0 mm | - | 180 W/m² | - |
| 1788014110 | 26.11° C | 86% | 1022.5 hPa | 0 mm | - | 147 W/m² | - |
| 1788013810 | 26.11° C | 86% | 1022.6 hPa | 0 mm | - | 143 W/m² | - |
| 1788013509 | 25.56° C | 86% | 1022.5 hPa | 0 mm | - | 144 W/m² | - |
| 1788013203 | 26.11° C | 87% | 1022.7 hPa | 0 mm | - | 184 W/m² | - |
| 1788012902 | 25.56° C | 87% | 1022.6 hPa | 0 mm | - | 178 W/m² | - |
* Rain latest hour (hover to see other rain measurements)
** Current wind speed in m/s (hover to see current wind gust speed)